Regional Weather Roundup
Issued by NWS Upton, NY

Current Version | Previous Version | Graphics & Text | Print | Product List | Glossary Off
Versions: 1 2 3 4 5 6 7 8 9 10 11 12 13 14 15 16 17 18 19 20 21 22 23 24 25 26 27 28 29 30 31 32 33 34 35 36 37 38 39 40 41 42 43 44 45 46 47 48 49 50

878
ASUS41 KOKX 270004
RWROKX

REGIONAL WEATHER ROUNDUP
NATIONAL WEATHER SERVICE NEW YORK NY
800 PM EDT TUE JUL 26 2016

NOTE: "FAIR" INDICATES FEW OR NO CLOUDS BELOW 12,000 FEET WITH NO
SIGNIFICANT WEATHER AND/OR OBSTRUCTIONS TO VISIBILITY.

NYZ071-072-176-178-NJZ106-104-270100-
NEW YORK CITY METRO AREA

CITY           SKY/WX    TMP DP  RH WIND       PRES   REMARKS
Central Park   CLEAR     87  61  41 MISG      29.90R
LaGuardia APRT MOCLDY    88  62  41 N12       29.86R
Kennedy INTL   MOCLDY    88  59  37 NW10      29.87R
Newark/Liberty MOCLDY    88  61  40 NW12      29.87R
Bronx Bot Gard   N/A     84  61  45 NW10      29.88S
Wall St Helipt CLEAR     88  61  40 CALM      29.88R
Teterboro      CLEAR     87  59  38 N9G16     29.86R
$$

NYZ177-179-078>081-270100-
LONG ISLAND NEW YORK

CITY           SKY/WX    TMP DP  RH WIND       PRES   REMARKS
Farmingdale    CLEAR     87  62  43 N10       29.87R
MacArthur/ISP  PTCLDY    85  63  47 N8        29.86R
Shirley        CLEAR     84  63  49 N5        29.87R
Riverhead      NOT AVBL
Westhampton    CLEAR     83  61  47 NW6       29.87R
Southhampton     N/A     82  68  61 NW3       29.82R
Bridgehampton    N/A     81  66  61 CALM      29.85R
East Hampton   FAIR      80  65  58 W3        29.85R
Montauk          N/A     81  65  58 W7        29.86R
$$

NYZ052-065-067-270100-
HUDSON VALLEY

CITY           SKY/WX    TMP DP  RH WIND       PRES   REMARKS
White Plains   CLEAR     83  60  45 NW8       29.89R
Newburgh       PTCLDY    82  64  54 NW9       29.91S
Montgomery     CLEAR     80  63  55 NW5       29.90R
Poughkeepsie   CLEAR     84  61  45 NW6       29.87S
Albany         PTCLDY    81  61  50 W16       29.89R
$$

NJZ001-105-106-008-010-013-015-019>022-104-270100-
NEW JERSEY

CITY           SKY/WX    TMP DP  RH WIND       PRES   REMARKS
Newark/Liberty MOCLDY    88  61  40 NW12      29.87R
Teterboro      CLEAR     87  59  38 N9G16     29.86R
Caldwell       CLEAR     86  62  44 VRB3      29.89R
Morristown     PTCLDY    86  63  45 N6        29.89R
Somerville     PTCLDY    84  69  60 CALM      29.87R
Linden         FAIR      88  59  37 N7        29.89R
Sussex         CLEAR     81  62  52 CALM      29.92R
Abdover          N/A     80  62  54 N3        29.92R
Trenton        CLEAR     86  66  51 W3        29.89R
Millville      PTCLDY    84  71  65 CALM      29.92R
Atlantic City  CLOUDY    85  70  60 W6        29.91R
Wrightstown    NOT AVBL
Toms River     PTCLDY    84  72  67 W5        29.90R
Belmar         CLEAR     84  69  60 W6        29.90
$$

PAZ047>061-062-071-270100-
EASTERN PENNSYLVANIA

CITY           SKY/WX    TMP DP  RH WIND       PRES   REMARKS
Philadelphia   MOCLDY    88  69  53 SW13      29.91R HX  92
Allentown      CLEAR     85  64  49 W3        29.90R
Scranton       CLEAR     83  60  45 N7        29.94R
$$

CTZ002-004>006-009-010-012-RIZ004-006-007-MAZ004-011-015-270100-
SOUTHERN NEW ENGLAND
 IN CT

CITY           SKY/WX    TMP DP  RH WIND       PRES   REMARKS
Bradley INTL   PTCLDY    84  59  42 NW9       29.85R
Hartford       CLEAR     88  59  37 NW10      29.84R
Danbury        CLEAR     82  60  47 CALM      29.90R
Wtrbury/Oxford PTCLDY    81  59  47 N5        29.92R
Bridgeport     CLEAR     86  60  41 NW7       29.85S
Meriden        CLEAR     85  59  41 NW5       29.86R
New Haven      PTCLDY    84  61  45 NW6       29.86R
Chester        FAIR      82  61  47 CALM      29.87R
Groton         CLEAR     85  61  44 NW5       29.83R
Wilimantic     NOT AVBL

 IN RI

CITY           SKY/WX    TMP DP  RH WIND       PRES   REMARKS
Providence     PTCLDY    85  59  41 NW7       29.82R
Block Island   CLEAR     75  66  73 W10       29.84S
Westerly       CLEAR     85  59  41 W3        29.84R
 IN MA

CITY           SKY/WX    TMP DP  RH WIND       PRES   REMARKS
Boston         PTCLDY    89  58  34 N12       29.80R
Worchester     CLEAR     80  57  45 NW13      29.89R
Westfield      CLEAR     84  60  44 NW10      29.86R
Provincetown   CLEAR     79  66  64 S3        29.81
Nantucket      PTCLDY    74  67  78 W14       29.82R
$$

ANZ330-335-338-340-345-350-353-355-270100-
COASTAL MARINE OBSERVATIONS


STATION/POSITION TIME  SKY/WX   TEMP    WIND        PRES    VSBY  WAVE
                                AIR SEA DIR/SP/G                  HT/PER
                 (UTC)          (F)     (DEG/KT/KT) (MB)    (MI)  (FT/S)
NY HARB ENTRANCE 2250            80 76  240/  6/  8 1010.7          2/ 6
20S FIRE ISLAND  2250            78 76  220/ 14/ 16 1010.5          3/ 7
GREAT SOUTH BAY  2300            86 82  320/ 10/ 12   N/A
23 SSW MONTAUK P 2250            75 70  250/ 10/ 12 1011.0          3/ 7
15 E BARNEGAT LI 2322               77                N/A           3/ 7
HUDSON CANYON    2250            79 78              1011.4          4/ 7
KINGS POINT      2300               71              1011.0
EXECUTION ROCKS  2300            87     320/ 10/ 14   N/A
CENTRAL LI SOUND 2300            80 74  300/  8/ 12   N/A           1/ 2
EASTERN LI SOUND 2300            73 66  260/  8/ 10   N/A
ROBBINS REEF     2300                               1010.2
$$


>>>>>>>>>>>>>>>>>>>>>>>>>>>> KEY <<<<<<<<<<<<<<<<<<<<<<<<<<<
>                                                          <
>     SKY/WX - Sky Condition/Present Weather               <
>     TMP    - Temperature in Fahrenheit                   <
>     DP     - Dew Point in Fahrenheit                     <
>     RH     - Relative Humidity in Percent                <
>     WIND   - Direction (from) and Speed in MPH           <
>     PRES   - Mean Sea Level Pressure (inches of Hg)      <
>     WCI    - Wind Chill Index                            <
>     VSB    - VISIBILITY IN MILES                         <
>     HX     - HEAT INDEX                                  <
>     TC     - TEMPERATURE IN CELSIUS                      <
>     VRB    - VARIABLE WIND DIRECTION                     <
>                                                          <
>>>>>>>>>>>>>>>>>>>>>>>>>>>> KEY <<<<<<<<<<<<<<<<<<<<<<<<<<<




USA.gov is the U.S. government's official web portal to all federal, state and local government web resources and services.